Location: Équennes
(49.7375°N, 1.9622°E)
Time: 19:16:45
(UTC+00:00)

Cosmos 2278 - Pass Details

Date: 27 September 2023
Orbit: 838 x 853 km, 71.1° (Epoch: 08 December)

Event Time Altitude Azimuth Distance (km) Brightness Sun altitude
Rises 01:28:06 0° 333° (NNW) 3,427 7.2 -36.8°
Reaches altitude 10° 01:30:39 10° 339° (NNW) 2,489 6.5 -36.6°
Enters shadow 01:33:36 29° 356° (N) 1,522 5.3 -36.3°
